Weather in Shauljaj

Lithuania     55°55′58″N   23°19′03″E
temp.,
°C
wind,
m/s
gust,
m/s
humid.,
%
clouds,
%
prec.,
mm/h
press.,
hPa
HPBL,
m
27 february, sat
sat2723:00+2w511920 0.0 1016290
02:00+2wnw6139032 0.0 1017459
05:00+1nw7148928 0.0 1018539
08:000nw7149014 0.0 1021524
11:00+3nnw712782 0.0 1023829
14:00+5nnw711671 0.0 10251099
17:00+4nw612710 0.0 1026666
20:00+1nw511840 0.0 1027335
28 february, sun
sun2823:000wnw5109135 0.0 1028296
02:00+1wnw5108767 0.0 1028353
05:00+2wnw6128295 0.0 1026375
08:00+3w7157998 0.0 1025431
11:00+5nw7127697 0.0 1024778
14:00+4nw6138797 0.6 1025686
17:00+4nw5108696 0.0 1025426
20:00+2nw4109251 0.0 1027252
1 march, mon
mon123:00+1nw35950 0.0 1028127
02:00+1nw48950 0.0 1030180
05:00+1nw48940 0.0 1029204
08:00+1wnw48920 0.0 1030169
11:00+6w59750 0.0 1029378
14:00+9w611671 0.0 1028575
17:00+7w7146932 0.0 1026576
20:00+3w6129033 0.0 1026431
2 march, tue
tue223:00+2wnw510924 0.0 1027292
02:00+1wnw47922 0.0 1028147
05:00+1wnw478820 0.0 1027134
08:00+2w488527 0.0 1028188
11:00+6w47720 0.0 1028258
14:00+9wnw58620 0.0 1028592
17:00+7wnw48730 0.0 1027302
20:00+4wnw47880 0.0 1027157
3 march, wed
wed323:00+2wnw36910 0.0 1028101
02:00+1wnw34900 0.0 102873
05:00+1wnw33912 0.0 102865
08:00+1w34915 0.0 102896
11:00+5w23770 0.0 1028256
14:00+7sw23690 0.0 1026521
17:00+5sw46800 0.0 1024422
20:00+2wsw478918 0.0 1022457